This is the latest recevied weather packets stored in our database for station/object WD4IXD. If no packets are shown the sender has not sent any weather packets the latest 10 day(s).
| Time | Temp. | Humidity | Pressure | Rain* | Wind** | Luminosity | Snow |
|---|---|---|---|---|---|---|---|
| 1777915804 | 22.22° C | 19% | 1010.9 hPa | 0 mm | - | 185 W/m² | - |
| 1777915515 | 22.78° C | 19% | 1011 hPa | 0 mm | - | 239 W/m² | - |
| 1777915204 | 22.78° C | 19% | 1011.1 hPa | 0 mm | - | 826 W/m² | - |
| 1777914915 | 23.33° C | 17% | 1011.3 hPa | 0 mm | - | 267 W/m² | - |
| 1777914604 | 23.89° C | 17% | 1011.2 hPa | 0 mm | - | 752 W/m² | - |
| 1777914316 | 24.44° C | 17% | 1011.2 hPa | 0 mm | - | 227 W/m² | - |
| 1777914004 | 23.89° C | 18% | 1011.4 hPa | 0 mm | - | 905 W/m² | - |
| 1777913715 | 23.89° C | 18% | 1011.3 hPa | 0 mm | - | 677 W/m² | - |
| 1777913403 | 23.33° C | 19% | 1011.4 hPa | 0 mm | - | 882 W/m² | - |
| 1777913104 | 22.78° C | 20% | 1011.4 hPa | 0 mm | - | 838 W/m² | - |
| 1777912815 | 22.78° C | 20% | 1011.4 hPa | 0 mm | - | 802 W/m² | - |
| 1777912504 | 22.78° C | 21% | 1011.6 hPa | 0 mm | - | 675 W/m² | - |
| 1777912215 | 22.22° C | 21% | 1011.7 hPa | 0 mm | - | 580 W/m² | - |
| 1777911904 | 21.67° C | 21% | 1011.6 hPa | 0 mm | - | 552 W/m² | - |
| 1777911604 | 21.67° C | 22% | 1011.7 hPa | 0 mm | - | 654 W/m² | - |
| 1777911304 | 21.11° C | 23% | 1011.7 hPa | 0 mm | - | 635 W/m² | - |
| 1777911015 | 20.56° C | 23% | 1011.7 hPa | 0 mm | - | 605 W/m² | - |
| 1777910704 | 20.56° C | 23% | 1011.8 hPa | 0 mm | - | 591 W/m² | - |
| 1777910404 | 20.56° C | 23% | 1012 hPa | 0 mm | - | 548 W/m² | - |
| 1777910115 | 20° C | 24% | 1012.1 hPa | 0 mm | - | 547 W/m² | - |
| 1777909804 | 20° C | 24% | 1012 hPa | 0 mm | - | 577 W/m² | - |
| 1777909503 | 19.44° C | 24% | 1012 hPa | 0 mm | - | 584 W/m² | - |
| 1777909215 | 18.89° C | 26% | 1012.2 hPa | 0 mm | - | 582 W/m² | - |
| 1777908904 | 18.89° C | 26% | 1012.2 hPa | 0 mm | - | 543 W/m² | - |
| 1777908614 | 18.33° C | 26% | 1012.3 hPa | 0 mm | - | 520 W/m² | - |
* Rain latest hour (hover to see other rain measurements)
** Current wind speed in m/s (hover to see current wind gust speed)